User: anonymous   Login
Location: Voyageurs National Park
(48.5020°N, 92.9292°W)
Time: 23:46:52
(UTC-05:00)
Language:

Terra - Orbit

View from above orbital plane
View from above orbital plane
View from above satellite
View from above satellite

Ground track
Ground track

The orbit data is extracted from the following two-line orbital elements,

1 25994U 99068A   16125.75879809  .00000084  00000-0  28684-4 0  9993
2 25994  98.2114 200.6616 0001028  82.5420 277.5883 14.57092336871195
Epoch (UTC): 04 May 2016 18:12:40
Eccentricity: 0.0001028
inclination: 98.2114°
perigee height: 702 km
apogee height: 703 km
right ascension of ascending node: 200.6616°
argument of perigee: 82.5420°
revolutions per day: 14.57092336
mean anomaly at epoch: 277.5883°
orbit number at epoch: 87119

The dashed part of the orbit path shows where the satellite is in the earth's shadow,  

DLR